Back to catalog

COSMOS 1289

AliveNavigationLEO
NORAD 12638·PAYLOAD·🇷🇺 Russia

Launched Aug 6, 1981 from Plesetsk Cosmodrome

Loading…

Next Passes (next 24 hours)

TLE

FreshSource: Space-Track

Epoch: Sep 14, 2026, 08:01 UTC

1 12638U 81074C   26257.33409286 -.00000018  00000-0 -10033-4 0  9999
2 12638  74.0361  24.1007 0025373 312.4551  74.8567 12.54726180 65978

Track COSMOS 1289 in real time with AllMySat

Download on the App Store